Time,TemperatureF,DewpointF,PressureIn,WindDirection,WindDirectionDegrees,WindSpeedMPH,WindSpeedGustMPH,Humidity,HourlyPrecipIn,Conditions,Clouds,dailyrainin,SoftwareType,DateUTC
2013-01-25 15:25:00,42.4,-0.6,22.83,West,260,3.6,3.6,16,0.00,,,0.00,VWS V14.00,2013-01-25 22:25:00,
2013-01-25 15:27:00,42.4,-0.6,22.83,SW,217,3.6,4.0,16,0.00,,,0.00,VWS V14.00,2013-01-25 22:27:00,
2013-01-25 15:30:00,42.4,-0.6,22.83,WSW,241,6.3,6.3,16,0.00,,,0.00,VWS V14.00,2013-01-25 22:30:00,
2013-01-25 15:36:00,42.4,-0.6,22.83,South,176,0.0,6.3,16,0.00,,,0.00,VWS V14.00,2013-01-25 22:36:00,
2013-01-25 15:41:00,42.4,-0.6,22.80,SSW,195,3.6,6.3,16,0.00,,,0.00,VWS V14.00,2013-01-25 22:41:00,
2013-01-25 15:46:00,42.4,-0.6,22.80,SSW,195,0.0,3.1,16,0.00,,,0.00,VWS V14.00,2013-01-25 22:46:00,
2013-01-25 15:51:00,42.4,-0.6,22.80,SSE,161,3.6,5.8,16,0.00,,,0.00,VWS V14.00,2013-01-25 22:51:00,
2013-01-25 15:56:00,42.6,-0.4,22.80,SSE,151,4.9,8.3,16,0.00,,,0.00,VWS V14.00,2013-01-25 22:56:00,
2013-01-25 16:01:00,42.4,-0.6,22.80,SW,231,3.1,4.0,16,0.00,,,0.00,VWS V14.00,2013-01-25 23:01:00,
2013-01-25 16:06:00,42.4,-0.6,22.80,SSW,197,2.7,6.3,16,0.00,,,0.00,VWS V14.00,2013-01-25 23:06:00,
2013-01-25 16:11:00,42.3,-0.7,22.80,SSW,204,5.4,6.3,16,0.00,,,0.00,VWS V14.00,2013-01-25 23:11:00,
2013-01-25 16:16:00,42.1,-0.9,22.80,SSW,202,0.0,5.8,16,0.00,,,0.00,VWS V14.00,2013-01-25 23:16:00,
2013-01-25 16:22:00,41.9,-1.0,22.80,SSW,196,2.2,5.8,16,0.00,,,0.00,VWS V14.00,2013-01-25 23:22:00,
2013-01-25 16:27:00,41.5,-1.3,22.80,SSE,161,2.2,5.8,16,0.00,,,0.00,VWS V14.00,2013-01-25 23:27:00,
2013-01-25 16:32:00,41.4,-1.5,22.80,South,184,4.0,4.9,16,0.00,,,0.00,VWS V14.00,2013-01-25 23:32:00,
2013-01-25 16:37:00,41.0,-1.7,22.80,SW,221,3.6,4.9,16,0.00,,,0.00,VWS V14.00,2013-01-25 23:37:00,
2013-01-25 16:42:00,40.6,-2.0,22.80,SW,215,3.6,5.8,16,0.00,,,0.00,VWS V14.00,2013-01-25 23:42:00,
2013-01-25 16:47:00,40.3,-2.3,22.80,SSW,206,0.0,3.1,16,0.00,,,0.00,VWS V14.00,2013-01-25 23:47:00,
2013-01-25 16:52:00,39.9,-2.6,22.80,South,189,0.0,3.6,16,0.00,,,0.00,VWS V14.00,2013-01-25 23:52:00,
2013-01-25 16:57:00,39.7,-2.8,22.83,SE,142,0.0,3.6,16,0.00,,,0.00,VWS V14.00,2013-01-25 23:57:00,
2013-01-25 17:02:00,39.4,-3.1,22.83,SSE,163,2.7,4.0,16,0.00,,,0.00,VWS V14.00,2013-01-26 00:02:00,
2013-01-25 17:08:00,39.0,-3.4,22.83,SSW,193,0.0,4.0,16,0.00,,,0.00,VWS V14.00,2013-01-26 00:08:00,
2013-01-25 17:13:00,38.7,-3.7,22.80,SW,219,0.0,5.4,16,0.00,,,0.00,VWS V14.00,2013-01-26 00:13:00,
2013-01-25 17:18:00,38.3,-4.0,22.80,South,181,0.0,0.0,16,0.00,,,0.00,VWS V14.00,2013-01-26 00:18:00,
2013-01-25 17:23:00,37.9,-4.2,22.80,South,179,0.0,0.0,16,0.00,,,0.00,VWS V14.00,2013-01-26 00:23:00,
2013-01-25 17:28:00,37.8,-4.4,22.80,SSE,154,0.0,4.0,16,0.00,,,0.00,VWS V14.00,2013-01-26 00:28:00,
2013-01-25 17:33:00,37.4,-4.7,22.80,South,176,0.0,2.7,16,0.00,,,0.00,VWS V14.00,2013-01-26 00:33:00,
2013-01-25 17:38:00,37.2,-3.6,22.80,SSW,193,2.2,3.6,17,0.00,,,0.00,VWS V14.00,2013-01-26 00:38:00,
2013-01-25 17:43:00,37.0,-3.7,22.83,South,186,0.0,3.6,17,0.00,,,0.00,VWS V14.00,2013-01-26 00:43:00,
2013-01-25 17:48:00,36.9,-3.9,22.83,South,186,0.0,0.0,17,0.00,,,0.00,VWS V14.00,2013-01-26 00:48:00,
2013-01-25 17:54:00,36.7,-4.0,22.83,SSW,199,0.0,0.0,17,0.00,,,0.00,VWS V14.00,2013-01-26 00:54:00,
2013-01-25 17:59:00,36.5,-4.2,22.83,SSW,199,0.0,2.7,17,0.00,,,0.00,VWS V14.00,2013-01-26 00:59:00,
2013-01-25 18:04:00,36.3,-4.3,22.83,SW,215,0.0,2.2,17,0.00,,,0.00,VWS V14.00,2013-01-26 01:04:00,
2013-01-25 18:09:00,36.1,-4.5,22.83,SSW,194,0.0,2.7,17,0.00,,,0.00,VWS V14.00,2013-01-26 01:09:00,
2013-01-25 18:14:00,35.8,-4.8,22.83,SSW,194,0.0,2.7,17,0.00,,,0.00,VWS V14.00,2013-01-26 01:14:00,
2013-01-25 18:19:00,35.6,-4.9,22.83,SE,127,2.7,2.7,17,0.00,,,0.00,VWS V14.00,2013-01-26 01:19:00,
2013-01-25 18:24:00,35.6,-4.9,22.83,SW,225,0.0,4.0,17,0.00,,,0.00,VWS V14.00,2013-01-26 01:24:00,
2013-01-25 18:29:00,35.4,-5.1,22.83,SSW,202,3.1,5.4,17,0.00,,,0.00,VWS V14.00,2013-01-26 01:29:00,
2013-01-25 18:34:00,35.2,-5.2,22.83,SW,221,3.1,5.8,17,0.00,,,0.00,VWS V14.00,2013-01-26 01:34:00,
2013-01-25 18:39:00,35.1,-5.3,22.83,WSW,258,4.0,5.8,17,0.00,,,0.00,VWS V14.00,2013-01-26 01:39:00,
2013-01-25 18:45:00,35.1,-5.3,22.83,SE,139,0.0,5.8,17,0.00,,,0.00,VWS V14.00,2013-01-26 01:45:00,
2013-01-25 18:50:00,35.1,-5.3,22.83,SW,224,2.7,5.8,17,0.00,,,0.00,VWS V14.00,2013-01-26 01:50:00,
2013-01-25 18:55:00,35.1,-5.3,22.83,SSW,210,0.0,5.8,17,0.00,,,0.00,VWS V14.00,2013-01-26 01:55:00,
2013-01-25 19:00:00,34.9,-5.5,22.83,SSW,208,0.0,0.0,17,0.00,,,0.00,VWS V14.00,2013-01-26 02:00:00,
2013-01-25 19:05:00,34.5,-5.8,22.83,SSW,208,0.0,2.7,17,0.00,,,0.00,VWS V14.00,2013-01-26 02:05:00,
2013-01-25 19:10:00,34.2,-6.1,22.83,South,186,0.0,2.7,17,0.00,,,0.00,VWS V14.00,2013-01-26 02:10:00,
2013-01-25 19:15:00,34.0,-6.2,22.83,South,186,0.0,0.0,17,0.00,,,0.00,VWS V14.00,2013-01-26 02:15:00,
2013-01-25 19:20:00,33.8,-6.4,22.83,South,186,0.0,0.0,17,0.00,,,0.00,VWS V14.00,2013-01-26 02:20:00,
2013-01-25 19:25:00,33.4,-5.5,22.80,South,186,0.0,0.0,18,0.00,,,0.00,VWS V14.00,2013-01-26 02:25:00,
2013-01-25 19:31:00,33.3,-5.7,22.80,South,186,0.0,0.0,18,0.00,,,0.00,VWS V14.00,2013-01-26 02:31:00,
2013-01-25 19:36:00,33.1,-5.8,22.80,South,187,0.0,0.0,18,0.00,,,0.00,VWS V14.00,2013-01-26 02:36:00,
2013-01-25 19:41:00,32.9,-5.9,22.80,South,186,0.0,0.0,18,0.00,,,0.00,VWS V14.00,2013-01-26 02:41:00,
2013-01-25 19:46:00,32.7,-6.1,22.80,South,186,0.0,0.0,18,0.00,,,0.00,VWS V14.00,2013-01-26 02:46:00,
2013-01-25 19:51:00,32.7,-6.1,22.80,South,186,0.0,0.0,18,0.00,,,0.00,VWS V14.00,2013-01-26 02:51:00,
2013-01-25 19:56:00,32.7,-6.1,22.80,South,186,0.0,0.0,18,0.00,,,0.00,VWS V14.00,2013-01-26 02:56:00,
2013-01-25 20:01:00,32.7,-6.1,22.80,South,186,0.0,0.0,18,0.00,,,0.00,VWS V14.00,2013-01-26 03:01:00,
2013-01-25 20:06:00,32.7,-6.1,22.80,South,186,0.0,0.0,18,0.00,,,0.00,VWS V14.00,2013-01-26 03:06:00,
2013-01-25 20:11:00,32.5,-6.2,22.80,South,186,0.0,0.0,18,0.00,,,0.00,VWS V14.00,2013-01-26 03:11:00,
2013-01-25 20:17:00,32.5,-4.1,22.80,South,186,0.0,0.0,20,0.00,,,0.00,VWS V14.00,2013-01-26 03:17:00,
2013-01-25 20:22:00,32.5,-6.2,22.80,South,186,0.0,0.0,18,0.00,,,0.00,VWS V14.00,2013-01-26 03:22:00,
2013-01-25 20:27:00,32.5,-4.1,22.80,South,186,0.0,0.0,20,0.00,,,0.00,VWS V14.00,2013-01-26 03:27:00,
2013-01-25 20:32:00,32.5,-4.1,22.80,South,186,0.0,0.0,20,0.00,,,0.00,VWS V14.00,2013-01-26 03:32:00,
2013-01-25 20:37:00,32.7,-3.9,22.80,South,186,0.0,0.0,20,0.00,,,0.00,VWS V14.00,2013-01-26 03:37:00,
2013-01-25 20:42:00,32.7,-3.9,22.80,South,186,0.0,0.0,20,0.00,,,0.00,VWS V14.00,2013-01-26 03:42:00,
2013-01-25 20:47:00,32.7,-3.9,22.80,South,186,0.0,0.0,20,0.00,,,0.00,VWS V14.00,2013-01-26 03:47:00,
2013-01-25 20:52:00,32.9,-3.8,22.80,South,186,0.0,0.0,20,0.00,,,0.00,VWS V14.00,2013-01-26 03:52:00,
2013-01-25 20:57:00,32.9,-3.8,22.80,South,186,0.0,0.0,20,0.00,,,0.00,VWS V14.00,2013-01-26 03:57:00,
2013-01-25 21:03:00,33.1,-3.6,22.80,South,186,0.0,0.0,20,0.00,,,0.00,VWS V14.00,2013-01-26 04:03:00,
2013-01-25 21:08:00,33.1,-3.6,22.80,SE,146,0.0,0.0,20,0.00,,,0.00,VWS V14.00,2013-01-26 04:08:00,
2013-01-25 21:13:00,33.3,-3.5,22.80,SE,146,0.0,0.0,20,0.00,,,0.00,VWS V14.00,2013-01-26 04:13:00,
2013-01-25 21:18:00,33.4,-3.3,22.80,SE,146,0.0,0.0,20,0.00,,,0.00,VWS V14.00,2013-01-26 04:18:00,
2013-01-25 21:23:00,33.6,-3.2,22.80,SE,146,0.0,0.0,20,0.00,,,0.00,VWS V14.00,2013-01-26 04:23:00,
2013-01-25 21:28:00,33.8,-3.0,22.80,SE,146,0.0,0.0,20,0.00,,,0.00,VWS V14.00,2013-01-26 04:28:00,
2013-01-25 21:33:00,33.8,-1.0,22.80,SE,146,0.0,0.0,22,0.00,,,0.00,VWS V14.00,2013-01-26 04:33:00,
2013-01-25 21:39:00,34.0,-0.9,22.80,SE,146,0.0,0.0,22,0.00,,,0.00,VWS V14.00,2013-01-26 04:39:00,
2013-01-25 21:44:00,34.0,-2.9,22.80,SE,146,0.0,0.0,20,0.00,,,0.00,VWS V14.00,2013-01-26 04:44:00,
2013-01-25 21:49:00,34.5,-0.4,22.80,North,10,2.2,2.7,22,0.00,,,0.00,VWS V14.00,2013-01-26 04:49:00,
2013-01-25 21:54:00,35.1,0.1,22.80,North,10,0.0,2.7,22,0.00,,,0.00,VWS V14.00,2013-01-26 04:54:00,
2013-01-25 21:59:00,36.0,-2.3,22.80,North,357,0.0,3.6,19,0.00,,,0.00,VWS V14.00,2013-01-26 04:59:00,
2013-01-25 22:00:00,36.0,-2.3,22.80,North,357,0.0,3.6,19,0.00,,,0.00,VWS V14.00,2013-01-26 05:00:00,
2013-01-25 22:04:00,36.1,-2.1,22.80,North,357,0.0,0.0,19,0.00,,,0.00,VWS V14.00,2013-01-26 05:04:00,
2013-01-25 22:05:00,36.3,-2.0,22.80,NNW,346,2.2,3.1,19,0.00,,,0.00,VWS V14.00,2013-01-26 05:05:00,
2013-01-25 22:10:00,36.3,-2.0,22.80,West,278,0.0,3.6,19,0.00,,,0.00,VWS V14.00,2013-01-26 05:10:00,
2013-01-25 22:16:00,36.3,-2.0,22.80,North,0,0.0,3.1,19,0.00,,,0.00,VWS V14.00,2013-01-26 05:16:00,
2013-01-25 22:21:00,36.5,-1.8,22.80,North,0,0.0,3.1,19,0.00,,,0.00,VWS V14.00,2013-01-26 05:21:00,
2013-01-25 22:26:00,36.3,1.1,22.80,West,259,3.6,3.6,22,0.00,,,0.00,VWS V14.00,2013-01-26 05:26:00,
2013-01-25 22:31:00,36.5,1.3,22.80,NW,317,0.0,0.0,22,0.00,,,0.00,VWS V14.00,2013-01-26 05:31:00,
2013-01-25 22:36:00,36.3,1.1,22.80,NW,317,0.0,0.0,22,0.00,,,0.00,VWS V14.00,2013-01-26 05:36:00,
2013-01-25 22:41:00,36.1,1.0,22.80,NW,316,0.0,0.0,22,0.00,,,0.00,VWS V14.00,2013-01-26 05:41:00,
2013-01-25 22:46:00,36.0,0.8,22.80,NW,313,0.0,0.0,22,0.00,,,0.00,VWS V14.00,2013-01-26 05:46:00,
2013-01-25 22:51:00,35.6,0.5,22.80,South,188,0.0,0.0,22,0.00,,,0.00,VWS V14.00,2013-01-26 05:51:00,
2013-01-25 22:57:00,35.4,0.4,22.80,WSW,244,0.0,3.1,22,0.00,,,0.00,VWS V14.00,2013-01-26 05:57:00,
2013-01-25 23:02:00,35.6,0.5,22.80,SW,236,0.0,0.0,22,0.00,,,0.00,VWS V14.00,2013-01-26 06:02:00,
2013-01-25 23:07:00,35.6,0.5,22.80,SW,215,2.7,2.7,22,0.00,,,0.00,VWS V14.00,2013-01-26 06:07:00,
2013-01-25 23:12:00,35.6,0.5,22.80,WSW,240,0.0,3.6,22,0.00,,,0.00,VWS V14.00,2013-01-26 06:12:00,
2013-01-25 23:17:00,35.6,0.5,22.80,West,263,2.7,3.1,22,0.00,,,0.00,VWS V14.00,2013-01-26 06:17:00,
2013-01-25 23:22:00,35.6,0.5,22.80,WSW,238,2.2,5.8,22,0.00,,,0.00,VWS V14.00,2013-01-26 06:22:00,
2013-01-25 23:27:00,36.1,1.0,22.80,WSW,238,0.0,5.8,22,0.00,,,0.00,VWS V14.00,2013-01-26 06:27:00,
2013-01-25 23:32:00,36.3,1.1,22.80,WSW,238,0.0,0.0,22,0.00,,,0.00,VWS V14.00,2013-01-26 06:32:00,
2013-01-25 23:37:00,36.3,1.1,22.80,SW,235,0.0,0.0,22,0.00,,,0.00,VWS V14.00,2013-01-26 06:37:00,
2013-01-25 23:43:00,36.1,1.0,22.80,South,177,2.7,3.6,22,0.00,,,0.00,VWS V14.00,2013-01-26 06:43:00,
2013-01-25 23:48:00,36.1,1.0,22.80,SW,226,3.6,3.6,22,0.00,,,0.00,VWS V14.00,2013-01-26 06:48:00,
2013-01-25 23:53:00,36.5,1.3,22.80,North,353,0.0,3.6,22,0.00,,,0.00,VWS V14.00,2013-01-26 06:53:00,
2013-01-25 23:58:00,36.5,1.3,22.80,WSW,247,0.0,3.6,22,0.00,,,0.00,VWS V14.00,2013-01-26 06:58:00,